Regional Weather Roundup
Issued by NWS

Home | Current Version | Previous Version | Text Only | Print | Product List | Glossary Off
Versions: 1 2 3 4 5 6 7 8 9 10 11 12 13 14 15 16 17 18 19 20 21 22 23 24 25 26 27 28 29 30 31 32 33 34 35 36 37 38 39 40 41 42 43 44 45 46 47 48 49 50

000
ASUS43 KMKX 170921
RWRWI

WISCONSIN REGIONAL WEATHER ROUNDUP
NATIONAL WEATHER SERVICE MILWAUKEE/SULLIVAN WI
400 AM CDT WED SEP 17 2014

NOTE: "FAIR" INDICATES FEW OR NO CLOUDS BELOW 12,000 FEET WITH NO
SIGNIFICANT WEATHER AND/OR OBSTRUCTIONS TO VISIBILITY.

WIZ001-002-006>008-014>016-023>028-171000-
NORTHWEST WISCONSIN

CITY           SKY/WX    TMP DP  RH WIND       PRES   REMARKS
SUPERIOR ARPT  PTCLDY    39  39  99 CALM      29.95S
ASHLAND        CLEAR     44  42  93 SW5       29.95S
HAYWARD        CLEAR     37  36  96 CALM      29.97F
SIREN          CLOUDY    44  43  94 CALM      29.96S
RICE LAKE      FOG       40  40  98 CALM      29.99F VSB 1/4
LADYSMITH      CLEAR     40  38  95 CALM      30.00F
EAU CLAIRE     MOCLDY    42  41  96 CALM      29.98F
MENOMONIE      PTSUNNY   45  44  97 E3        29.99F
NEW RICHMOND   CLOUDY    50  46  85 S5        29.97F
OSCEOLA        MOCLDY    50  48  90 S5        29.99S
$$

WIZ003>005-009-010-017-018-171000-
NORTH CENTRAL WISCONSIN

CITY           SKY/WX    TMP DP  RH WIND       PRES   REMARKS
WOODRUFF       CLEAR     39  37  92 CALM      29.97F
RHINELANDER    CLEAR     41  40  96 W3        29.99F
EAGLE RIVER    PTCLDY    42  41  97 CALM      29.96F
LAND O LAKES   PTCLDY    44  42  93 CALM      29.97S
PHILLIPS       CLEAR     39  37  94 CALM      29.98F
TOMAHAWK       CLEAR     34  33  96 CALM      30.00S
MEDFORD        CLEAR     40  39  97 S3        30.00S
MERRILL        MOCLDY    34  34 100 CALM      30.00S FOG
$$

WIZ029-030-035-036-043>047-171000-
CENTRAL WISCONSIN

CITY           SKY/WX    TMP DP  RH WIND       PRES   REMARKS
WAUSAU         CLEAR     42  41  96 E5        30.00F
MOSINEE        CLEAR     41  41 100 CALM      30.01F
MARSHFIELD     CLEAR     43  41  93 CALM      30.00F
STEVENS POINT  CLEAR     37  36  97 CALM      30.02F
WAUPACA        CLEAR     42  40  95 CALM      30.02F
WAUTOMA        CLEAR     37  36  96 CALM      30.03F
WISC RAPIDS    CLEAR     40  39  97 CALM      30.03S FOG
CAMP DOUGLAS   CLEAR     42  42 100 E3        30.02S
$$

WIZ011>013-019>022-031-037>040-048>050-171000-
NORTHEAST WISCONSIN

CITY           SKY/WX    TMP DP  RH WIND       PRES   REMARKS
ANTIGO         CLEAR     38  38  98 CALM      30.01S
STURGEON BAY   CLEAR     48  45  87 W5        30.00S
GREEN BAY      CLEAR     44  43  96 CALM      30.01F
MANITOWOC      CLEAR     49  45  86 W6        30.02F
APPLETON       FAIR      46  43  87 W8        30.02
CLINTONVILLE   CLEAR     39  37  93 SW3       30.01S
OSHKOSH        CLEAR     43  41  93 S6        30.02F
$$

WIZ032>034-041-042-053>061-171000-
SOUTHWEST WISCONSIN

CITY           SKY/WX    TMP DP  RH WIND       PRES   REMARKS
LA CROSSE      CLOUDY    49  47  93 SE6       30.02S FOG
SPARTA         FOG       35  35 100 CALM      30.03S VSB 1
VIROQUA        FAIR      48  43  85 S3        30.02F
BOSCOBEL       FOG       47  45  93 CALM      30.04F VSB 1/4
PRAIRIE DU CHI CLEAR     44  43  95 E5        30.04S
PLATTEVILLE    FAIR      47  43  86 CALM      30.04S
$$

WIZ056-057-062-063-064-067-068-171000-
SOUTH CENTRAL WISCONSIN

CITY           SKY/WX    TMP DP  RH WIND       PRES   REMARKS
BARABOO/DELLS  CLEAR     44  42  92 CALM      30.02F
LONE ROCK      FOG       45  41  86 CALM      30.04S VSB 1/4
WATERTOWN      CLEAR     39  39 100 CALM      30.03F
MADISON        MOCLDY    41  39  93 CALM      30.03F
MIDDLETON      FAIR      40  40 100 CALM      30.04F
MONROE         CLEAR     46  43  87 SW7       30.04S
JANESVILLE     CLEAR     41  39  93 CALM      30.04F
$$

WIZ051-052-058>065-066-070>072-171000-
SOUTHEAST WISCONSIN

CITY           SKY/WX    TMP DP  RH WIND       PRES   REMARKS
MILWAUKEE      CLEAR     50  45  83 S3        30.04F
WAUKESHA       CLEAR     41  39  93 CALM      30.05F
MILWAUKEE/TIMM CLEAR     41  39  93 CALM      30.05F
RACINE         CLEAR     50  46  86 SW5       30.06F
BURLINGTON       N/A     36  36 100 CALM      30.05S FOG
KENOSHA        FOG       44  43  96 CALM      30.05F VSB 1/4
FOND DU LAC    CLEAR     44  40  85 SW3       30.03F
SHEBOYGAN      CLEAR     41  39  93 SW5       30.03F
WEST BEND      CLEAR     39  37  93 CALM      30.04F
JUNEAU         CLEAR     42  41  94 SE5       30.04F
$$

LSZ147-162-171000-
LAKE SUPERIOR

STATION/POSITION TIME  TEMP    WIND        PRES    WAVE
                       AIR SEA DIR/SP/G            HT/PER
                 (UTC) (F)     (DEG/KT/KT) (MB)    (FT/S)
W MID LAKE BUOY  0850   47 47  290/  2/  6 1012.8F   2/ 4
DEVILS ISLAND    0900   49     340/  6/  7 1013.6F
PORT WING        0800   53      20/  5/  6 1014.6
SAXON HARBOR     0800   54     190/  6/  9 1014.2
$$

LMZ867-665-643>646-171000-
LAKE MICHIGAN

STATION/POSITION TIME  TEMP    WIND        PRES    WAVE
                       AIR SEA DIR/SP/G            HT/PER
                 (UTC) (F)     (DEG/KT/KT) (MB)    (FT/S)
N MID LAKE BUOY  0850   57 57  260/ 10/ 12 1014.8F   2/ 5
NORTHPORT PIER   0800   55     280/  4/  9 1015.2F
KEWAUNEE LAKESHO 0900   48     300/  6/  7 1015.2F
SHEBOYGAN LAKESH 0900   49 50  230/  6/  7 1017.2F
PORT WASHINGTON  0800   49     270/  5/  7 1017.9
ATWATER BUOY     0900   55     220/  8/ 10 1018.0F
MILWAUKEE LAKESH 0900   53     230/  6/  8   N/A
S MID LAKE BUOY  0850   61 64  220/  8/ 10 1017.7F   0
KENOSHA   LAKESH 0900   52     250/  7/  9 1017.3F
$$

TC  - TEMPERATURE IN CELSIUS
VSB - VISIBILITY IN STATUTE MILES
WCI - WIND CHILL INDEX
HX  - HEAT INDEX



USA.gov is the U.S. government's official web portal to all federal, state and local government web resources and services.